| time (UTC) | temp C | wind direction | speed KPH | gust KPH | rain 1hr cm | rain 24hr cm | rain mn cm | humidity % | barometer mb |
| 20260904060132 | 16 | 305 | 8.0 | 27.4 | 0.00 | 0.13 | 0.08 | 85 | 1010.3 |
| 20260904054536 | 16 | 252 | 8.0 | 16.1 | 0.00 | 0.13 | 0.08 | 88 | 1010.2 |
| 20260904053031 | 16 | 309 | 8.0 | 22.5 | 0.00 | 0.13 | 0.08 | 89 | 1009.9 |
| 20260904051530 | 16 | 316 | 6.4 | 24.1 | 0.00 | 0.13 | 0.08 | 89 | 1010.0 |
| 20260904050029 | 16 | 217 | 9.7 | 22.5 | 0.00 | 0.13 | 0.08 | 87 | 1009.8 |
| 20260904044540 | 16 | 103 | 3.2 | 16.1 | 0.00 | 0.13 | 0.08 | 87 | 1009.7 |
| 20260904043035 | 16 | 127 | 3.2 | 14.5 | 0.00 | 0.13 | 0.08 | 86 | 1009.6 |
| 20260904041527 | 16 | 285 | 6.4 | 14.5 | 0.00 | 0.13 | 0.08 | 85 | 1009.4 |
| 20260904040027 | 16 | 301 | 8.0 | 22.5 | 0.00 | 0.13 | 0.08 | 85 | 1009.7 |
| 20260904034525 | 16 | 277 | 9.7 | 19.3 | 0.00 | 0.13 | 0.08 | 87 | 1009.7 |
| 20260904033024 | 16 | 333 | 9.7 | 22.5 | 0.00 | 0.13 | 0.08 | 86 | 1009.9 |
| 20260904031523 | 16 | 250 | 9.7 | 29.0 | 0.08 | 0.13 | 0.08 | 87 | 1010.0 |
| 20260904030023 | 16 | 318 | 11.3 | 20.9 | 0.08 | 0.13 | 0.08 | 89 | 1010.4 |
| 20260904024519 | 15 | 284 | 3.2 | 24.1 | 0.08 | 0.13 | 0.08 | 91 | 1010.6 |
| 20260904023016 | 15 | 316 | 8.0 | 17.7 | 0.08 | 0.13 | 0.08 | 89 | 1010.8 |
| 20260904021522 | 16 | 64 | 6.4 | 20.9 | 0.00 | 0.05 | 0.00 | 85 | 1010.8 |
| 20260904020015 | 16 | 113 | 4.8 | 16.1 | 0.00 | 0.05 | 0.00 | 82 | 1010.7 |
| 20260904014512 | 16 | 245 | 8.0 | 22.5 | 0.00 | 0.05 | 0.00 | 83 | 1011.1 |
| 20260904013009 | 16 | 221 | 9.7 | 17.7 | 0.00 | 0.05 | 0.00 | 85 | 1011.8 |
| 20260904011507 | 16 | 333 | 6.4 | 20.9 | 0.00 | 0.05 | 0.00 | 85 | 1012.1 |
| 20260904010005 | 16 | 236 | 9.7 | 22.5 | 0.00 | 0.05 | 0.00 | 83 | 1012.5 |
| 20260904004504 | 17 | 304 | 8.0 | 20.9 | 0.00 | 0.05 | 0.00 | 79 | 1012.5 |
| 20260904003003 | 17 | 288 | 6.4 | 19.3 | 0.00 | 0.05 | 0.00 | 75 | 1012.7 |
| 20260904001601 | 17 | 276 | 4.8 | 22.5 | 0.00 | 0.05 | 0.00 | 74 | 1012.9 |
| 20260904000058 | 17 | 344 | 8.0 | 24.1 | 0.00 | 0.05 | 0.00 | 77 | 1013.4 |
| 20260903234558 | 16 | 328 | 6.4 | 16.1 | 0.00 | 0.05 | 0.00 | 78 | 1013.2 |
| 20260903233054 | 16 | 319 | 4.8 | 16.1 | 0.00 | 0.05 | 0.00 | 77 | 1013.6 |
| 20260903231603 | 16 | 295 | 6.4 | 19.3 | 0.00 | 0.05 | 0.00 | 75 | 1014.1 |
| 20260903230053 | 16 | 41 | 9.7 | 19.3 | 0.00 | 0.05 | 0.00 | 74 | 1014.2 |
| 20260903224551 | 17 | 127 | 4.8 | 17.7 | 0.00 | 0.05 | 0.00 | 72 | 1014.2 |
| 20260903223049 | 16 | 325 | 9.7 | 19.3 | 0.00 | 0.05 | 0.00 | 71 | 1014.3 |
| 20260903221548 | 17 | 264 | 6.4 | 14.5 | 0.00 | 0.05 | 0.00 | 72 | 1014.7 |
| 20260903220049 | 17 | 257 | 4.8 | 17.7 | 0.00 | 0.05 | 0.00 | 73 | 1014.5 |
| 20260903214546 | 16 | 245 | 9.7 | 22.5 | 0.00 | 0.05 | 0.00 | 74 | 1014.5 |
| 20260903213042 | 17 | 323 | 11.3 | 24.1 | 0.00 | 0.05 | 0.00 | 71 | 1014.8 |
| 20260903211540 | 17 | 288 | 9.7 | 33.8 | 0.00 | 0.05 | 0.00 | 72 | 1015.0 |
| 20260903210042 | 16 | 337 | 11.3 | 32.2 | 0.00 | 0.05 | 0.00 | 74 | 1015.2 |
| 20260903204533 | 16 | 266 | 12.9 | 22.5 | 0.00 | 0.05 | 0.00 | 76 | 1015.3 |
| 20260903203030 | 16 | 253 | 12.9 | 24.1 | 0.00 | 0.05 | 0.00 | 78 | 1015.4 |
| 20260903201526 | 15 | 322 | 8.0 | 22.5 | 0.00 | 0.05 | 0.00 | 82 | 1015.5 |
| 20260903200025 | 15 | 287 | 6.4 | 14.5 | 0.00 | 0.05 | 0.00 | 83 | 1015.6 |
| 20260903194524 | 15 | 224 | 8.0 | 16.1 | 0.00 | 0.05 | 0.00 | 84 | 1015.7 |
| 20260903193023 | 15 | 252 | 4.8 | 19.3 | 0.00 | 0.05 | 0.00 | 84 | 1015.7 |
| 20260903191520 | 15 | 243 | 8.0 | 20.9 | 0.00 | 0.05 | 0.00 | 84 | 1015.7 |
| 20260903190018 | 15 | 280 | 6.4 | 20.9 | 0.00 | 0.05 | 0.00 | 84 | 1015.8 |
| 20260903184515 | 15 | 276 | 8.0 | 19.3 | 0.00 | 0.05 | 0.00 | 84 | 1015.8 |
| 20260903183013 | 15 | 238 | 6.4 | 19.3 | 0.00 | 0.05 | 0.00 | 84 | 1015.9 |
| 20260903181511 | 15 | 238 | 6.4 | 17.7 | 0.00 | 0.05 | 0.00 | 84 | 1016.0 |
| 20260903180008 | 14 | 36 | 6.4 | 14.5 | 0.00 | 0.05 | 0.00 | 84 | 1015.8 |
| 20260903174508 | 14 | 278 | 4.8 | 12.9 | 0.00 | 0.05 | 0.00 | 84 | 1015.8 |
| 20260903173016 | 14 | 243 | 6.4 | 16.1 | 0.00 | 0.05 | 0.00 | 85 | 1015.8 |
| 20260903171504 | 14 | 303 | 6.4 | 16.1 | 0.00 | 0.05 | 0.00 | 86 | 1015.9 |
| 20260903170009 | 15 | 309 | 8.0 | 19.3 | 0.00 | 0.05 | 0.00 | 85 | 1016.1 |
| 20260903164606 | 14 | 27 | 4.8 | 11.3 | 0.00 | 0.05 | 0.00 | 86 | 1016.2 |
| 20260903163059 | 15 | 46 | 4.8 | 16.1 | 0.00 | 0.05 | 0.00 | 86 | 1016.1 |
| 20260903161558 | 15 | 300 | 6.4 | 12.9 | 0.00 | 0.05 | 0.00 | 86 | 1016.0 |
| 20260903160059 | 15 | 26 | 6.4 | 19.3 | 0.00 | 0.05 | 0.00 | 86 | 1015.9 |
| 20260903154558 | 15 | 315 | 6.4 | 19.3 | 0.00 | 0.05 | 0.00 | 86 | 1015.8 |
| 20260903153056 | 15 | 207 | 3.2 | 16.1 | 0.00 | 0.05 | 0.00 | 87 | 1015.9 |
| 20260903151554 | 15 | 139 | 3.2 | 11.3 | 0.00 | 0.05 | 0.00 | 87 | 1015.9 |
| 20260903150054 | 15 | 238 | 4.8 | 12.9 | 0.00 | 0.05 | 0.00 | 86 | 1016.0 |
| 20260903144551 | 15 | 252 | 4.8 | 11.3 | 0.00 | 0.05 | 0.00 | 87 | 1016.1 |
| 20260903143105 | 15 | 284 | 8.0 | 22.5 | 0.00 | 0.05 | 0.00 | 87 | 1016.2 |
| 20260903141545 | 15 | 317 | 8.0 | 16.1 | 0.00 | 0.05 | 0.00 | 88 | 1016.5 |
| 20260903140041 | 15 | 276 | 4.8 | 12.9 | 0.00 | 0.05 | 0.00 | 88 | 1016.5 |
| 20260903134540 | 15 | 259 | 4.8 | 16.1 | 0.00 | 0.05 | 0.00 | 89 | 1016.6 |
| 20260903133039 | 15 | 288 | 3.2 | 14.5 | 0.00 | 0.05 | 0.00 | 89 | 1016.6 |
| 20260903131543 | 15 | 342 | 6.4 | 16.1 | 0.00 | 0.05 | 0.00 | 90 | 1016.8 |
| 20260903130034 | 15 | 308 | 3.2 | 11.3 | 0.00 | 0.05 | 0.00 | 92 | 1016.8 |
| 20260903124534 | 15 | 337 | 3.2 | 8.0 | 0.00 | 0.05 | 0.00 | 92 | 1016.7 |
| 20260903123037 | 15 | 348 | 1.6 | 9.7 | 0.00 | 0.05 | 0.00 | 91 | 1016.7 |
| 20260903121533 | 15 | 91 | 1.6 | 6.4 | 0.00 | 0.05 | 0.00 | 91 | 1016.7 |
| 20260903120024 | 15 | 99 | 0.0 | 6.4 | 0.00 | 0.05 | 0.00 | 90 | 1016.9 |
| 20260903114525 | 15 | 20 | 1.6 | 8.0 | 0.03 | 0.05 | 0.05 | 90 | 1017.0 |
| 20260903113034 | 15 | 353 | 3.2 | 8.0 | 0.03 | 0.05 | 0.05 | 90 | 1017.2 |
| 20260903111521 | 14 | 285 | 4.8 | 12.9 | 0.05 | 0.05 | 0.05 | 91 | 1017.3 |
| 20260903110019 | 14 | 319 | 4.8 | 16.1 | 0.05 | 0.05 | 0.05 | 92 | 1017.4 |
| 20260903104518 | 13 | 328 | 1.6 | 6.4 | 0.03 | 0.03 | 0.03 | 92 | 1017.6 |
| 20260903103018 | 13 | 107 | 0.0 | 6.4 | 0.03 | 0.03 | 0.03 | 91 | 1017.5 |
| 20260903101522 | 13 | 89 | 1.6 | 6.4 | 0.00 | 0.00 | 0.00 | 91 | 1017.6 |
| 20260903100021 | 13 | 5 | 1.6 | 8.0 | 0.00 | 0.00 | 0.00 | 91 | 1017.8 |
| 20260903094516 | 13 | 100 | 1.6 | 8.0 | 0.00 | 0.00 | 0.00 | 91 | 1017.8 |
| 20260903093015 | 14 | 128 | 1.6 | 12.9 | 0.00 | 0.00 | 0.00 | 91 | 1018.0 |
| 20260903091519 | 13 | 90 | 1.6 | 6.4 | 0.00 | 0.00 | 0.00 | 89 | 1017.9 |
| 20260903090014 | 13 | 115 | 1.6 | 6.4 | 0.00 | 0.00 | 0.00 | 89 | 1017.9 |
| 20260903084520 | 13 | 86 | 3.2 | 8.0 | 0.00 | 0.00 | 0.00 | 88 | 1017.9 |
| 20260903083014 | 13 | 86 | 1.6 | 9.7 | 0.00 | 0.00 | 0.00 | 88 | 1017.9 |
| 20260903081515 | 13 | 103 | 1.6 | 3.2 | 0.00 | 0.00 | 0.00 | 88 | 1017.9 |
| 20260903080012 | 13 | 111 | 0.0 | 3.2 | 0.00 | 0.00 | 0.00 | 88 | 1018.1 |
| 20260903074512 | 13 | 179 | 0.0 | 3.2 | 0.00 | 0.00 | 0.00 | 88 | 1018.0 |
| 20260903073011 | 13 | 252 | 0.0 | 4.8 | 0.00 | 0.00 | 0.00 | 88 | 1018.0 |
| 20260903071509 | 13 | 224 | 0.0 | 4.8 | 0.00 | 0.00 | 0.00 | 87 | 1017.9 |
| 20260903070009 | 13 | 214 | 3.2 | 6.4 | 0.00 | 0.00 | 0.00 | 87 | 1017.9 |
| 20260903064508 | 13 | 164 | 1.6 | 6.4 | 0.00 | 0.00 | 0.00 | 85 | 1017.8 |
| 20260903063007 | 13 | 294 | 1.6 | 11.3 | 0.00 | 0.00 | 0.00 | 81 | 1017.8 |
| 20260903061506 | 14 | 245 | 6.4 | 12.9 | 0.00 | 0.00 | 0.00 | 79 | 1017.7 |